Location: Recife
(8.0585°S, 34.8848°W)
Time: 06:07:16
(UTC-03:00)

Vanguard 1 Rocket - Pass Details

Date: 17 April 2026
Orbit: 655 x 4212 km, 34.3° (Epoch: 13 May)

Event Time Altitude Azimuth Distance (km) Brightness Sun altitude
Rises 14:03:40 0° 216° (SW) 4,154 10.9 45.0°
Reaches altitude 10° 14:06:27 10° 205° (SSW) 3,536 10.5 44.3°
Maximum altitude 14:14:46 31° 144° (SE) 3,189 10.1 42.4°
Drops below altitude 10° 14:29:02 10° 88° (E) 6,128 11.3 39.2°
Sets 14:35:54 0° 79° (E) 7,702 11.7 37.6°
